GW3114 Weather Reports


Display with metric or nautical units.
time (UTC)temp
F
wind
direction
speed
MPH
gust
MPH
rain 1hr
in
rain 24hr
in
rain mn
in
humidity
%
barometer
mb
20260902191455 74 214 0.0 0.0 0.00 0.10 0.10 99 1018.5
20260902190452 75 244 0.0 0.0 0.00 0.10 0.10 98 1018.8
20260902185449 75 237 0.0 0.0 0.00 0.10 0.10 97 1019.5
20260902184445 75 215 0.0 0.0 0.12 0.10 0.10 97 1018.4
20260902183443 76 232 1.0 1.0 0.24 0.08 0.08 95 1018.6
20260902182441 78 241 2.0 2.0 0.24 0.04 0.04 92 1019.1
20260902181438 84 288 6.0 9.0 0.00 0.00 0.00 79 1018.7
20260902180433 88 335 3.0 4.0 0.00 0.00 0.00 67 1018.6
20260902175430 93 96 0.0 1.0 0.00 0.00 0.00 68 1018.0
20260902174428 94 301 1.0 3.0 0.00 0.00 0.00 64 1018.4
20260902173428 94 283 1.0 2.0 0.00 0.00 0.00 67 1018.3
20260902172428 94 236 2.0 2.0 0.00 0.00 0.00 64 1018.7
20260902171425 93 229 0.0 0.0 0.00 0.00 0.00 69 1018.7
20260902170421 92 343 2.0 3.0 0.00 0.00 0.00 69 1018.6
20260902165416 92 158 1.0 1.0 0.00 0.00 0.00 70 1018.5
20260902164412 92 311 0.0 1.0 0.00 0.00 0.00 68 1018.7
20260902163412 92 254 0.0 1.0 0.00 0.00 0.00 68 1018.9
20260902162411 92 226 0.0 0.0 0.00 0.00 0.00 67 1018.7
20260902161407 88 142 3.0 3.0 0.00 0.00 0.00 71 1018.9
20260902160404 90 318 1.0 2.0 0.00 0.00 0.00 70 1018.8
20260902155401 90 212 0.0 0.0 0.00 0.00 0.00 68 1018.7
20260902154358 88 145 3.0 3.0 0.00 0.00 0.00 77 1018.6
20260902153356 89 208 0.0 0.0 0.00 0.00 0.00 72 1018.7
20260902152353 91 203 0.0 0.0 0.00 0.00 0.00 70 1018.4
20260902151350 87 217 0.0 1.0 0.00 0.00 0.00 74 1018.7
20260902150347 88 203 0.0 0.0 0.00 0.00 0.00 72 1018.3
20260902145347 89 190 0.0 1.0 0.00 0.00 0.00 73 1018.6
20260902144344 87 217 0.0 1.0 0.00 0.00 0.00 72 1018.7
20260902143339 86 176 1.0 2.0 0.00 0.00 0.00 72 1018.6
20260902142337 87 217 0.0 0.0 0.00 0.00 0.00 75 1018.7
20260902141333 86 198 1.0 1.0 0.00 0.00 0.00 74 1018.2
20260902140334 85 206 0.0 0.0 0.00 0.00 0.00 76 1018.5
20260902135329 86 95 1.0 1.0 0.00 0.00 0.00 75 1018.7
20260902134324 83 219 1.0 1.0 0.00 0.00 0.00 79 1018.5
20260902133325 83 211 0.0 0.0 0.00 0.00 0.00 80 1018.4
20260902132321 83 175 0.0 1.0 0.00 0.00 0.00 79 1018.4
20260902131319 83 205 0.0 0.0 0.00 0.00 0.00 78 1018.5
20260902130314 84 189 0.0 0.0 0.00 0.00 0.00 79 1018.3
20260902125311 83 212 0.0 1.0 0.00 0.00 0.00 78 1018.3
20260902124309 83 194 0.0 0.0 0.00 0.00 0.00 81 1018.4
20260902123306 81 208 0.0 0.0 0.00 0.00 0.00 81 1018.3
20260902122300 81 211 0.0 0.0 0.00 0.00 0.00 83 1018.3
20260902121255 78 208 0.0 0.0 0.00 0.00 0.00 88 1018.2
20260902120253 76 178 0.0 0.0 0.00 0.00 0.00 92 1018.2
20260902115249 74 220 0.0 0.0 0.00 0.00 0.00 98 1018.1
20260902114247 73 218 0.0 0.0 0.00 0.00 0.00 99 1018.2
20260902113243 72 219 0.0 0.0 0.00 0.00 0.00 99 1018.2
20260902112239 72 223 0.0 0.0 0.00 0.00 0.00 99 1018.1
20260902111236 71 230 0.0 0.0 0.00 0.00 0.00 99 1018.3
20260902110233 71 216 0.0 0.0 0.00 0.00 0.00 99 1018.1
20260902105228 72 219 0.0 0.0 0.00 0.00 0.00 99 1018.2
20260902104226 72 230 0.0 0.0 0.00 0.00 0.00 99 1018.1
20260902103225 72 219 0.0 0.0 0.00 0.00 0.00 99 1018.1
20260902102224 72 221 0.0 0.0 0.00 0.00 0.00 99 1018.2
20260902101219 72 224 0.0 0.0 0.00 0.00 0.00 98 1018.0
20260902100214 72 218 0.0 0.0 0.00 0.00 0.00 98 1017.8
20260902095213 73 218 0.0 0.0 0.00 0.00 0.00 97 1017.7
20260902094211 73 218 0.0 0.0 0.00 0.00 0.00 97 1017.7
20260902093211 73 226 0.0 0.0 0.00 0.00 0.00 97 1017.8
20260902092207 74 225 0.0 0.0 0.00 0.00 0.00 97 1017.6
20260902091203 74 223 0.0 0.0 0.00 0.00 0.00 96 1017.7
20260902090203 74 236 0.0 0.0 0.00 0.00 0.00 96 1017.8
20260902085158 74 225 0.0 0.0 0.00 0.00 0.00 95 1017.8
20260902084156 74 225 0.0 0.0 0.00 0.00 0.00 95 1017.6
20260902083156 74 226 0.0 0.0 0.00 0.00 0.00 95 1017.6
20260902082154 74 223 0.0 0.0 0.00 0.00 0.00 95 1017.5
20260902081151 74 217 0.0 0.0 0.00 0.00 0.00 95 1017.4
20260902080149 74 223 0.0 0.0 0.00 0.00 0.00 94 1017.5
20260902075144 74 223 0.0 0.0 0.00 0.00 0.00 94 1017.5
20260902074140 74 223 0.0 0.0 0.00 0.00 0.00 93 1017.4
20260902073137 74 225 0.0 0.0 0.00 0.00 0.00 92 1017.6
20260902072135 75 230 0.0 0.0 0.00 0.00 0.00 92 1017.7
20260902071131 75 227 0.0 0.0 0.00 0.00 0.00 91 1017.5
20260902070127 76 226 0.0 0.0 0.00 0.00 0.00 89 1017.4
20260902065122 77 214 0.0 0.0 0.00 0.00 0.00 87 1017.3
20260902064118 78 215 0.0 0.0 0.00 0.00 0.00 85 1017.3
20260902063114 78 230 0.0 0.0 0.00 0.00 0.00 83 1017.4
20260902062114 79 224 2.0 2.0 0.00 0.00 0.00 82 1017.3
20260902061110 79 268 1.0 1.0 0.00 0.00 0.00 80 1017.4
20260902060108 80 186 1.0 2.0 0.00 0.00 0.00 79 1017.5
20260902055105 81 334 1.0 1.0 0.00 0.00 0.00 76 1017.3
20260902054101 81 276 1.0 2.0 0.00 0.00 0.00 76 1017.5
20260902053056 82 231 0.0 0.0 0.00 0.00 0.00 75 1017.1
20260902052052 82 237 0.0 0.0 0.00 0.00 0.00 74 1016.9
20260902051051 82 295 2.0 2.0 0.00 0.00 0.00 74 1016.8
20260902050047 83 268 2.0 3.0 0.00 0.00 0.00 72 1016.7
20260902045044 82 260 3.0 3.0 0.00 0.00 0.00 73 1016.7
20260902044040 82 252 3.0 3.0 0.00 0.00 0.00 72 1016.8
20260902043036 82 247 2.0 3.0 0.00 0.00 0.00 73 1016.7
20260902042031 82 274 3.0 3.0 0.00 0.00 0.00 73 1016.5
20260902041026 82 224 2.0 2.0 0.00 0.00 0.00 73 1016.9
20260902040026 81 261 2.0 3.0 0.00 0.00 0.00 75 1016.7
20260902035027 82 236 2.0 2.0 0.00 0.00 0.00 75 1016.6
20260902034025 79 264 0.0 0.0 0.00 0.00 0.00 81 1016.4
20260902033025 76 224 0.0 0.0 0.00 0.00 0.00 91 1016.1
20260902032025 76 224 0.0 0.0 0.00 0.00 0.00 92 1016.1
20260902031022 76 233 0.0 0.0 0.00 0.00 0.00 92 1016.1
20260902030022 77 232 0.0 0.0 0.00 0.00 0.00 91 1016.0
20260902025018 77 203 0.0 0.0 0.00 0.00 0.00 89 1015.8
20260902024013 78 220 0.0 0.0 0.00 0.00 0.00 87 1016.0
20260902023009 81 165 0.0 0.0 0.00 0.00 0.00 83 1016.1
20260902022005 82 224 0.0 0.0 0.00 0.00 0.00 76 1016.0
20260902021001 82 245 0.0 0.0 0.00 0.00 0.00 77 1016.0
20260902015959 82 199 0.0 0.0 0.00 0.00 0.00 77 1015.8
20260902014955 79 260 2.0 2.0 0.00 0.00 0.00 83 1015.9
20260902013952 77 207 0.0 1.0 0.00 0.00 0.00 98 1015.8
20260902012948 77 211 0.0 0.0 0.00 0.00 0.00 98 1015.9
20260902011944 78 219 0.0 0.0 0.00 0.00 0.00 97 1016.0
20260902010939 78 211 0.0 0.0 0.00 0.00 0.00 95 1015.3
20260902005939 79 223 0.0 0.0 0.00 0.00 0.00 91 1015.3
20260902004935 80 220 0.0 0.0 0.00 0.00 0.00 91 1014.9
20260902003930 80 223 0.0 0.0 0.00 0.00 0.00 90 1015.0
20260902002925 81 235 0.0 0.0 0.00 0.00 0.00 89 1015.3
20260902001920 82 224 0.0 0.0 0.00 0.00 0.00 88 1014.6
20260902000916 82 216 0.0 0.0 0.00 0.00 0.00 86 1014.3
20260901235912 84 210 0.0 0.0 0.00 0.00 0.00 83 1014.4
20260901234908 86 231 0.0 1.0 0.00 0.00 0.00 79 1014.4
20260901233902 86 228 2.0 2.0 0.00 0.00 0.00 77 1014.3
20260901232900 87 294 2.0 3.0 0.00 0.00 0.00 77 1014.5
20260901231856 87 253 1.0 1.0 0.00 0.00 0.00 77 1014.3
20260901230854 88 229 1.0 2.0 0.00 0.00 0.00 75 1014.6
20260901225849 89 291 2.0 3.0 0.00 0.00 0.00 73 1014.3
20260901224849 89 233 1.0 2.0 0.00 0.00 0.00 72 1014.7
20260901223847 89 226 1.0 1.0 0.00 0.00 0.00 73 1014.7
20260901222844 90 220 1.0 1.0 0.00 0.00 0.00 71 1014.6
20260901221842 91 217 1.0 1.0 0.00 0.00 0.00 71 1014.4
20260901220837 93 203 0.0 0.0 0.00 0.00 0.00 69 1014.6
20260901215835 91 230 0.0 0.0 0.00 0.00 0.00 70 1014.5
20260901214833 90 218 0.0 0.0 0.00 0.00 0.00 71 1014.6
20260901213833 90 222 0.0 0.0 0.00 0.00 0.00 72 1014.8
20260901212833 90 224 0.0 0.0 0.00 0.00 0.00 70 1014.7
20260901211831 91 230 0.0 0.0 0.00 0.00 0.00 68 1014.5
20260901210828 92 218 1.0 1.0 0.00 0.00 0.00 65 1014.7
20260901205825 94 220 0.0 0.0 0.00 0.00 0.00 62 1014.6
20260901204820 96 200 3.0 3.0 0.00 0.00 0.00 58 1014.8
20260901203816 95 210 0.0 1.0 0.00 0.00 0.00 63 1014.6
20260901202811 96 177 0.0 1.0 0.00 0.00 0.00 59 1014.7
20260901201809 95 220 0.0 1.0 0.00 0.00 0.00 61 1014.9
20260901200809 97 221 0.0 0.0 0.00 0.00 0.00 59 1014.8
20260901195807 96 294 2.0 3.0 0.00 0.00 0.00 59 1015.0
20260901194802 95 246 1.0 2.0 0.00 0.00 0.00 60 1015.5
20260901193759 95 160 1.0 2.0 0.00 0.00 0.00 59 1015.4
20260901192758 93 244 3.0 3.0 0.00 0.00 0.00 63 1015.5